EHI
19 21 22 25 28 29 30 27 23 20 19 15 11 9 7 5 4 2 2 2 3 2 1 0 0 0 0 0 0 0 0 0 0 0 0 0 0 0 0 0 0 0 0
18 20 22 25 28 28 27 24 20 18 16 13 9 8 8 6 5 3 3 3 2 1 1 0 0 0 0 0 0 0 0 0 0 0 0 0 0 0 0 0 0 0 0
16 18 21 23 24 25 23 20 17 15 13 10 8 9 9 8 6 4 3 3 2 1 0 0 0 0 0 0 0 0 0 0 0 0 0 0 0 0 0 0 0 0 0
13 15 18 19 20 20 17 15 14 12 10 8 7 8 9 7 5 3 3 3 2 1 0 0 0 0 0 0 0 0 0 0 0 0 0 0 0 0 0 0 0 0 0
11 13 15 15 15 13 11 10 11 10 7 5 6 6 6 4 2 2 2 2 1 0 0 0 0 0 0 0 0 0 0 0 0 0 0 0 0 0 0 0 0 0 0
12 12 12 12 10 8 7 7 8 7 5 4 4 4 2 1 1 0 1 1 0 0 0 0 0 0 0 0 0 0 0 0 0 0 0 0 0 0 0 0 0 0 0
13 12 11 10 8 5 5 5 5 5 4 3 2 1 0 0 0 0 0 0 0 0 0 0 0 0 0 0 0 0 0 0 0 0 0 0 0 0 0 0 0 0 0
16 13 10 9 7 5 5 5 4 4 4 2 1 0 0 0 0 0 0 0 0 0 0 0 0 0 0 0 0 0 0 0 0 0 0 0 0 0 0 0 0 0 0
18 13 9 7 5 4 6 6 4 4 4 2 0 0 0 0 0 0 0 0 0 0 0 0 0 0 0 0 0 0 0 0 0 0 0 0 0 0 0 0 0 0 0
17 12 7 5 4 5 7 7 5 3 3 1 0 0 0 0 0 0 0 0 0 0 0 0 0 0 0 0 0 0 0 0 0 0 0 0 0 0 0 0 0 0 0
16 12 7 5 4 6 8 7 5 3 3 2 1 0 0 0 0 0 0 0 0 0 0 0 0 0 0 0 0 0 0 0 0 0 0 0 0 0 0 0 0 0 0
15 12 8 5 4 6 9 9 6 3 3 2 1 0 0 0 0 0 0 0 0 0 0 0 0 0 0 0 0 0 0 0 0 0 0 0 0 0 0 0 0 0 0
13 10 6 3 3 7 10 10 6 3 3 2 1 0 0 0 0 0 0 0 0 0 0 0 0 0 0 0 0 0 0 0 0 0 0 0 0 0 0 0 0 0 0
8 9 6 3 5 10 13 12 7 3 2 2 1 0 0 0 0 0 0 0 0 0 0 0 0 0 0 0 0 0 0 0 0 0 0 0 0 0 0 0 0 0 0
6 7 8 7 8 12 16 14 8 3 1 1 0 0 0 0 0 0 0 0 0 0 0 0 0 0 0 0 0 0 0 0 0 0 0 0 0 0 0 0 0 0 0
5 7 9 10 10 13 17 15 9 5 3 2 0 0 0 0 0 0 0 0 0 0 0 0 0 0 0 0 0 0 0 0 0 0 0 0 0 0 0 0 0 0 0
6 7 9 11 11 14 16 15 12 8 6 4 2 0 0 0 0 0 0 0 0 0 0 0 0 0 0 0 0 0 0 0 0 0 0 0 0 0 0 0 0 0 0
10 8 8 10 11 14 16 16 15 12 9 7 5 2 1 0 0 0 0 0 0 0 0 0 0 0 0 0 0 0 0 0 0 0 0 0 0 0 0 0 0 0 0
12 10 9 9 9 12 15 16 16 14 11 9 8 5 2 1 0 0 0 0 0 0 0 0 0 0 0 0 0 0 0 0 0 0 0 0 0 0 0 0 0 0 0
10 10 10 9 9 11 13 15 16 15 12 10 8 6 3 1 0 0 0 0 0 0 0 0 0 0 0 0 0 0 0 0 0 0 0 0 0 0 0 0 0 0 0
8 9 10 12 14 16 17 16 16 16 13 10 8 7 4 1 0 0 0 0 0 0 0 0 0 0 0 0 0 0 0 0 0 0 0 0 0 0 0 0 0 0 0
8 9 11 14 19 22 22 18 15 15 14 11 9 8 6 2 0 0 0 0 0 0 0 0 0 0 0 0 0 0 0 0 0 0 0 0 0 0 0 0 0 0 0
9 11 14 16 19 23 23 17 13 14 13 11 9 9 6 3 1 1 0 0 0 0 0 0 0 0 0 0 0 0 0 0 0 0 0 0 0 0 0 0 0 0 0
11 12 15 16 17 18 18 14 11 11 11 10 9 8 6 4 3 2 1 0 0 0 0 0 0 0 0 0 0 0 0 0 0 0 0 0 0 0 0 0 0 0 0
12 12 14 15 14 13 11 9 7 8 8 8 8 8 7 4 2 2 1 0 0 0 0 0 0 0 0 0 0 0 0 0 0 0 0 0 0 0 0 0 0 0 0
12 12 13 13 12 10 8 6 4 5 6 7 7 8 6 3 1 1 0 0 0 0 0 0 0 0 0 0 0 0 0 0 0 0 0 0 0 0 0 0 0 0 0
Wind_Speed
6 7 9 10 10 9 10 9 9 8 6 5 5 4 4 3 3 3 5 5 4 4 4 3 3 3 3 2 2 1 2 1 1 2 2 3 2 0 1 1 1 2 2
7 8 8 9 10 9 9 9 9 8 7 5 4 3 4 3 3 3 4 5 5 5 5 4 3 3 3 3 3 2 2 2 2 2 2 3 4 4 2 1 1 1 1
12 10 10 9 10 10 10 9 8 8 6 6 4 4 4 3 3 3 2 3 5 5 5 5 4 4 3 3 3 3 3 2 2 2 3 3 1 2 3 2 1 1 1
11 10 11 10 11 10 9 8 8 7 6 7 7 8 6 4 4 3 3 3 5 5 5 5 5 4 3 4 3 4 3 3 2 2 2 2 3 2 2 4 3 3 1
13 12 11 11 10 10 9 8 8 7 6 6 7 7 5 4 3 3 5 4 3 4 5 5 5 5 4 4 4 4 4 3 3 2 2 3 3 2 3 1 4 4 3
12 11 10 10 9 9 9 9 9 7 7 7 7 8 8 7 7 5 5 3 3 3 5 6 5 4 4 4 4 4 4 3 3 3 2 2 2 1 2 1 1 2 3
13 12 12 12 11 11 10 9 10 8 7 7 7 7 8 9 9 7 6 5 3 3 4 5 4 4 4 4 4 4 4 3 3 3 2 2 1 1 2 2 0 2 3
13 13 13 13 12 12 11 11 10 8 7 8 7 7 7 6 5 5 5 5 4 4 5 5 5 4 4 4 4 3 2 3 3 3 3 2 1 1 2 2 2 2 3
15 14 13 13 12 13 12 12 11 9 8 8 8 7 7 6 6 5 5 4 5 5 5 5 5 4 4 4 4 3 2 2 2 2 2 2 1 1 2 2 2 3 1
14 14 13 13 12 12 11 11 11 10 9 8 8 7 7 7 7 6 6 6 6 5 6 5 5 5 4 4 4 2 2 3 1 1 2 1 0 1 2 2 1 2 3
16 14 13 12 12 11 11 11 11 10 9 9 7 8 7 7 7 7 7 7 6 7 6 6 5 5 4 4 3 2 2 2 1 1 1 1 1 0 1 1 1 1 2
15 14 14 12 11 12 12 11 11 11 10 9 8 8 8 7 7 7 7 7 7 6 6 6 5 4 4 4 4 3 2 3 2 2 1 1 1 1 1 0 0 0 1
15 14 13 13 13 13 12 13 12 11 10 10 9 9 8 8 8 8 7 7 7 6 5 5 5 4 4 4 4 4 3 3 3 3 3 3 2 2 2 2 2 2 1
16 16 14 14 14 13 13 13 12 12 11 10 10 10 10 9 8 8 8 7 7 6 6 5 5 5 4 4 4 4 4 3 3 3 4 4 4 5 4 3 3 3 2
16 18 17 15 14 14 13 13 13 12 12 12 11 11 9 8 8 8 8 7 7 7 6 5 5 4 4 5 5 4 4 4 3 3 4 4 6 8 6 4 4 4 3
17 18 18 18 17 17 16 15 14 13 13 13 12 11 10 9 9 9 8 7 7 6 6 6 6 5 4 7 8 6 4 4 4 4 4 5 6 8 10 10 9 8 6
16 18 18 19 19 18 17 17 16 14 14 13 12 12 12 11 10 10 9 8 8 6 6 6 6 5 6 8 9 9 5 5 5 5 5 5 5 6 5 7 9 9 12
16 16 16 17 16 16 16 16 15 15 15 14 13 13 12 12 10 9 9 8 6 6 6 6 6 5 7 10 10 10 6 5 5 6 6 6 7 7 6 6 6 7 8
13 14 14 15 15 16 16 15 15 15 15 15 14 14 14 12 11 11 10 7 6 6 6 5 6 6 7 11 12 9 4 5 7 7 7 7 7 10 10 6 7 8 8
8 10 10 10 13 14 15 16 16 16 16 16 15 14 13 13 13 11 9 6 6 7 7 6 6 7 7 10 12 11 4 5 5 5 6 9 10 11 10 6 6 8 9
6 8 9 10 12 14 15 16 15 17 16 13 12 12 13 13 11 10 7 6 7 7 6 7 6 6 8 9 12 12 6 6 5 5 5 6 9 11 11 9 7 11 10
6 8 9 8 9 12 15 16 16 15 11 11 12 12 12 11 10 9 8 7 8 7 6 5 5 5 6 8 9 12 13 9 6 6 6 6 9 9 9 7 10 13 10
6 7 9 8 7 10 13 15 13 11 11 11 12 11 11 9 9 10 9 7 6 6 5 5 5 5 4 5 10 11 13 14 8 7 9 9 10 9 8 11 13 10 5
5 5 7 8 6 7 9 9 9 11 12 12 11 10 10 9 8 7 7 6 7 6 6 6 6 5 4 4 4 4 5 8 8 7 7 9 10 9 9 9 8 6 6
4 5 7 7 6 6 6 7 8 10 10 9 9 8 8 8 7 7 7 8 8 8 8 7 6 5 6 7 9 6 4 4 4 3 2 2 3 4 4 5 6 5 4
6 7 7 7 6 6 6 6 7 9 9 8 7 6 6 6 5 5 4 6 7 10 11 10 8 6 8 8 8 8 7 6 5 4 3 4 4 5 6 6 6 5 5
Wind_Direction
175 160 157 153 147 145 146 152 148 149 146 138 133 131 132 135 130 133 132 126 122 118 113 110 101 98 104 110 106 94 64 26 48 56 7 350 353 323 247 224 203 212 211
168 165 158 156 155 155 158 158 155 154 152 148 145 140 133 136 133 124 119 125 121 119 117 112 106 98 96 81 72 79 78 22 52 104 79 17 357 350 347 326 210 225 214
168 166 160 160 157 159 162 161 159 154 151 145 128 117 99 91 91 107 114 123 122 116 111 110 104 99 103 99 82 81 94 67 21 72 125 121 203 319 340 358 12 3 14
170 170 167 166 163 165 162 155 153 151 151 146 142 144 143 145 163 154 139 127 123 122 115 110 106 105 102 99 88 82 88 94 55 23 45 117 153 128 357 343 352 1 359
173 174 173 167 161 160 158 155 149 150 152 149 148 146 142 144 144 132 128 118 115 120 116 110 107 106 100 98 87 82 80 87 93 65 45 52 50 72 113 3 335 343 330
176 174 169 158 156 157 156 155 151 155 155 153 152 149 148 147 144 144 141 132 114 106 112 111 109 109 106 103 98 94 91 87 87 78 70 84 84 71 103 120 318 320 312
174 173 168 165 162 161 161 159 156 156 156 152 153 150 152 153 156 156 153 145 134 131 136 120 118 115 116 112 103 93 90 90 90 88 83 84 99 138 135 124 82 340 317
174 173 173 170 168 166 165 163 161 159 159 154 152 146 147 147 151 154 150 154 154 156 150 134 129 125 122 113 103 96 97 93 88 84 84 76 60 82 119 140 130 42 344
174 174 172 172 170 170 171 169 163 161 163 158 151 148 144 145 147 144 145 149 151 151 146 138 132 127 123 120 109 102 106 106 99 95 82 76 42 59 73 103 132 135 106
174 174 174 174 174 173 171 167 165 165 165 156 156 154 150 150 148 143 144 143 145 138 139 137 136 133 128 128 117 113 117 123 132 127 95 69 39 41 51 72 91 127 150
177 176 176 174 171 168 168 167 166 161 162 159 156 148 150 146 143 144 147 143 141 141 142 143 143 144 145 142 138 147 147 146 160 148 143 196 186 88 23 55 76 101 139
177 176 173 169 167 168 170 169 167 166 168 163 157 155 153 148 146 150 151 146 146 149 149 147 148 157 160 161 164 177 164 168 186 199 174 216 192 188 237 201 246 228 188
174 174 172 172 173 172 174 170 171 172 170 163 160 160 160 159 160 160 157 153 152 156 155 153 161 171 175 179 184 182 181 183 194 198 197 213 192 219 232 226 229 241 234
176 176 176 177 177 175 175 173 176 173 169 165 165 169 173 172 170 165 162 162 160 162 167 170 176 182 185 184 187 188 191 201 212 213 212 215 208 217 224 227 228 225 237
180 181 180 180 178 177 177 177 177 176 173 169 174 179 176 172 168 167 167 167 169 174 175 176 185 189 187 193 192 196 199 206 225 238 237 235 232 226 220 217 215 211 219
187 186 183 181 182 182 181 180 180 179 174 175 180 178 173 172 173 173 172 172 177 177 177 185 191 199 206 202 202 194 199 204 214 235 251 258 253 246 241 239 227 210 208
190 188 187 186 186 185 182 182 182 177 177 180 180 178 177 178 179 179 175 180 184 181 183 192 195 205 214 212 211 208 195 205 216 226 239 253 251 249 245 253 254 243 235
189 188 188 188 187 184 182 180 177 177 180 182 182 181 180 182 179 178 182 185 182 183 188 197 200 204 219 217 218 218 209 219 230 231 231 238 254 254 241 246 257 256 251
190 190 188 185 183 183 180 175 177 179 182 185 186 184 182 181 180 184 187 185 180 186 191 193 197 204 223 222 223 218 208 228 243 245 241 236 246 257 251 241 251 264 267
186 182 178 174 180 183 175 174 179 181 188 189 187 183 180 181 184 187 185 180 180 190 192 202 205 207 219 225 224 215 204 228 247 255 252 245 246 256 256 235 237 254 264
185 170 165 174 182 178 173 179 182 189 191 185 179 177 180 182 183 182 180 176 179 185 195 207 215 216 220 226 225 215 204 219 235 246 252 250 250 252 253 241 230 242 253
165 160 163 174 177 173 173 180 189 189 176 171 173 177 179 183 183 177 181 180 179 187 198 208 223 228 227 228 229 221 217 216 220 239 245 247 253 255 259 252 248 256 264
157 164 166 164 167 171 174 182 187 170 165 170 175 176 177 180 174 176 181 180 184 191 200 205 219 234 232 234 233 230 228 225 223 240 246 253 260 265 266 262 263 265 252
151 149 146 151 165 173 176 180 169 162 164 171 174 172 174 176 174 176 179 184 191 197 202 209 220 229 234 237 235 231 233 231 231 246 259 266 267 264 262 269 272 255 238
111 122 131 141 149 150 152 147 145 149 159 167 168 169 173 176 180 185 190 193 201 199 200 210 210 213 233 236 225 216 216 211 217 216 249 262 266 270 270 269 268 263 256
97 101 104 109 112 118 122 128 140 148 153 157 161 166 169 174 177 180 197 212 209 208 209 213 211 220 227 234 229 230 231 226 201 181 230 247 249 253 260 266 273 270 262